Weather History for KGRI - March, 2013

Change the Weather History Date:

Saturday, March 30, 2013

  Actual Average Record
Temperature  
Mean Temperature 57 °F 44 °F  
Max Temperature 66 °F 57 °F 90 °F (1943)
Min Temperature 47 °F 32 °F 2 °F (1987)
Degree Days  
Heating Degree Days 8 21  
Month to date heating degree days 870 776  
Since 1 July heating degree days 5339 5537  
Cooling Degree Days 0 0  
Month to date cooling degree days 0 0  
Year to date cooling degree days 0 0  
Growing Degree Days 7 (Base 50)    
Moisture  
Dew Point 48 °F    
Average Humidity 69    
Maximum Humidity 100    
Minimum Humidity 37    
Precipitation  
Precipitation 0.02 in 0.08 in 0.91 in (1897)
Month to date precipitation 1.64 1.72  
Year to date precipitation 2.77 2.93  
Snow  
Snow 0.00 in 0.10 in 1.90 in (1985)
Month to date snowfall 6.2 5.2  
Since 1 July snowfall 27.6 27.3  
Snow Depth 0.00 in    
Sea Level Pressure  
Sea Level Pressure 29.97 in    
Wind  
Wind Speed 10 mph (NW)    
Max Wind Speed 24 mph    
Max Gust Speed 29 mph    
Visibility 6 miles    
Events Fog , Rain , Thunderstorm    
T = Trace of Precipitation, MM = Missing Value Source: NWS Daily Summary

Daily Weather History Graph

Daily Weather History Graph

Search for Another Location

Airport or City:

Trip Planner

Search our weather history database for the weather conditions in past years. The results will help you decide how hot, cold, wet, or windy it might be!

Date:

Astronomy

Mar. 30, 2013 Rise Set
Actual Time 7:19 AM CDT 7:56 PM CDT
Civil Twilight 6:51 AM CDT 8:24 PM CDT
Nautical Twilight 6:19 AM CDT 8:56 PM CDT
Astronomical Twilight 5:45 AM CDT 9:30 PM CDT
Moon No Moon Rise 9:14 AM CDT (3/30)
Length of Visible Light 13h 32m
Length of Day
12h 36m
Waning Gibbous, 86% of the Moon is Illuminated
Mar 30
Waning Gibbous
Apr 2
Last Quarter
Apr 10
New
Apr 18
First Quarter
Apr 25
Full

Hourly Weather History & Observations

Time (CDT) Temp. Dew Point Humidity Pressure Visibility Wind Dir Wind Speed Gust Speed Precip Events Conditions
12:20 AM 53.6 °F 51.8 °F 94% 29.99 in 2.5 mi South 21.9 mph - 0.12 in Rain , Thunderstorm Heavy Thunderstorms and Rain
12:40 AM 53.6 °F 53.6 °F 100% 29.98 in 3.0 mi South 25.3 mph - 0.40 in Rain , Thunderstorm Thunderstorms and Rain
12:53 AM 54.0 °F 52.0 °F 93% 29.96 in 8.0 mi SSE 24.2 mph - 0.43 in Rain , Thunderstorm Light Thunderstorms and Rain
1:04 AM 53.6 °F 51.8 °F 94% 29.98 in 10.0 mi SSE 17.3 mph - 0.01 in   Mostly Cloudy
1:14 AM 53.6 °F 51.8 °F 94% 29.97 in 10.0 mi SSE 18.4 mph 24.2 mph 0.01 in   Scattered Clouds
1:53 AM 53.1 °F 50.0 °F 89% 29.96 in 10.0 mi SSE 18.4 mph - 0.01 in   Clear
2:04 AM 51.8 °F 50.0 °F 94% 29.96 in 10.0 mi SSE 19.6 mph - N/A Thunderstorm Clear
2:19 AM 51.8 °F 50.0 °F 94% 29.96 in 10.0 mi SSE 19.6 mph - N/A   Clear
2:53 AM 52.0 °F 50.0 °F 93% 29.94 in 10.0 mi SSE 16.1 mph - N/A   Clear
3:40 AM 51.8 °F 50.0 °F 94% 29.95 in 7.0 mi South 12.7 mph - N/A   Partly Cloudy
3:53 AM 51.1 °F 50.0 °F 96% 29.93 in 6.0 mi South 11.5 mph - N/A   Partly Cloudy
4:53 AM 48.9 °F 48.0 °F 97% 29.93 in 4.0 mi SSW 3.5 mph - N/A   Mostly Cloudy
5:28 AM 50.0 °F 48.2 °F 94% 29.93 in 3.0 mi South 5.8 mph - N/A   Overcast
5:40 AM 50.0 °F 48.2 °F 94% 29.93 in 1.8 mi South 5.8 mph - N/A   Overcast
5:53 AM 50.0 °F 50.0 °F 100% 29.92 in 0.5 mi Calm Calm - N/A Fog Fog
6:07 AM 48.2 °F 48.2 °F 100% 29.94 in 0.2 mi NE 5.8 mph - N/A Fog Fog
6:53 AM 48.9 °F 48.9 °F 100% 29.95 in 0.2 mi Calm Calm - N/A Fog Fog
7:22 AM 48.2 °F 48.2 °F 100% 29.97 in 0.5 mi East 4.6 mph - N/A Fog Fog
7:37 AM 48.2 °F 48.2 °F 100% 29.98 in 1.2 mi NE 3.5 mph - N/A   Overcast
7:53 AM 48.9 °F 48.9 °F 100% 29.98 in 1.0 mi Calm Calm - N/A   Overcast
8:36 AM 50.0 °F 48.2 °F 94% 30.00 in 0.8 mi North 9.2 mph - N/A   Overcast
8:49 AM 50.0 °F 50.0 °F 100% 30.00 in 0.2 mi North 6.9 mph - N/A Fog Fog
8:53 AM 50.0 °F 50.0 °F 100% 29.99 in 0.2 mi North 5.8 mph - N/A Fog Fog
9:14 AM 51.8 °F 51.8 °F 100% 30.00 in 0.2 mi North 5.8 mph - N/A Fog Fog
9:25 AM 51.8 °F 51.8 °F 100% 29.99 in 0.8 mi North 4.6 mph - N/A   Overcast
9:32 AM 51.8 °F 51.8 °F 100% 29.99 in 1.8 mi NNW 5.8 mph - N/A   Overcast
9:39 AM 51.8 °F 51.8 °F 100% 29.99 in 3.0 mi North 5.8 mph - N/A   Mostly Cloudy
9:53 AM 53.1 °F 52.0 °F 96% 29.99 in 4.0 mi North 6.9 mph - N/A   Mostly Cloudy
10:07 AM 53.6 °F 51.8 °F 94% 29.99 in 6.0 mi NNW 9.2 mph - N/A   Mostly Cloudy
10:29 AM 53.6 °F 51.8 °F 94% 29.99 in 7.0 mi NNW 9.2 mph - N/A   Mostly Cloudy
10:53 AM 54.0 °F 51.1 °F 90% 29.99 in 10.0 mi NNW 10.4 mph - N/A   Scattered Clouds
11:53 AM 60.1 °F 48.0 °F 64% 29.99 in 10.0 mi North 10.4 mph 18.4 mph N/A   Clear
12:53 PM 63.0 °F 43.0 °F 48% 29.98 in 10.0 mi North 15.0 mph 20.7 mph N/A   Clear
1:53 PM 64.9 °F 37.9 °F 37% 29.97 in 10.0 mi North 12.7 mph 20.7 mph N/A   Clear
2:53 PM 63.0 °F 37.9 °F 40% 29.96 in 10.0 mi NNE 13.8 mph - N/A   Mostly Cloudy
3:53 PM 64.9 °F 37.0 °F 36% 29.95 in 10.0 mi North 9.2 mph 20.7 mph N/A   Clear
4:53 PM 63.0 °F 37.0 °F 38% 29.96 in 10.0 mi North 12.7 mph - N/A   Overcast
5:53 PM 62.1 °F 37.0 °F 39% 29.96 in 10.0 mi North 12.7 mph - N/A   Overcast
6:53 PM 55.9 °F 39.9 °F 55% 29.98 in 10.0 mi West 10.4 mph - 0.00 in Rain Light Rain
7:26 PM 51.8 °F 46.4 °F 82% 29.97 in 10.0 mi SW 13.8 mph - 0.01 in Rain Light Rain
7:53 PM 52.0 °F 45.0 °F 77% 29.98 in 10.0 mi WSW 11.5 mph - 0.01 in   Overcast
8:53 PM 51.1 °F 46.0 °F 83% 30.01 in 10.0 mi WNW 9.2 mph - 0.00 in   Overcast
9:53 PM 50.0 °F 46.0 °F 86% 30.02 in 10.0 mi WNW 12.7 mph - 0.01 in   Overcast
10:53 PM 48.9 °F 45.0 °F 86% 30.04 in 10.0 mi WNW 10.4 mph - N/A   Overcast
11:53 PM 48.9 °F 45.0 °F 86% 30.04 in 10.0 mi West 11.5 mph - N/A   Overcast